User: anonymous   Login
Location: Unspecified
(0.0000°N, 0.0000°E)
Time: 23:14:47
(UTC+00:00)
Language:

TIANWANG 1A (TW-1A) - Orbit

View from above orbital plane
View from above orbital plane
View from above satellite
View from above satellite

Ground track
Ground track

The orbit data is extracted from the following two-line orbital elements,

1 40928U 15051D   18109.86940041  .00003047  00000-0  82473-4 0  9998
2 40928  97.1905 145.0022 0012167 163.2429 301.3394 15.38379755143817
Epoch (UTC): 19 April 2018 20:51:56
Eccentricity: 0.0012167
inclination: 97.1905°
perigee height: 442 km
apogee height: 459 km
right ascension of ascending node: 145.0022°
argument of perigee: 163.2429°
revolutions per day: 15.38379755
mean anomaly at epoch: 301.3394°
orbit number at epoch: 14381

The dashed part of the orbit path shows where the satellite is in the earth's shadow,  

DLR